• Join FlightAware (Why Join?)
  • Login
  • US Flag 
03:30PM EST


 

Airport Tracker/Info


-or-


 

Live Flight TrackerFlight Track Log ✈ TAP112 ✈ 27-Mar-2014 ✈ KMIA - LPPT / LIS

Flight Track Log - Related Links

Times and Time Zones

All times are in EDT time to prevent confusion due to time zone crossing. See the TAP112 flight status page for this flight to view local times or setup timezone preferences in your user account.

Time Position Orientation Groundspeed Altitude Reporting Facility
EDT Latitude Longitude Course Direction KTS MPH feet Rate Location/Type
06:12PM 25.7983 -80.2675 116° Southeast 170 196 1,000  Level Miami Center
06:13PM 25.7667 -80.1953 116° Southeast 220 253 2,900 1,787 Climbing Miami Center
06:14PM 25.7408 -80.1300 114° Southeast 258 297 5,200 2,585 Climbing Miami Center
06:16PM 25.7219 -80.0394 103° East 268 308 8,200 2,311 Climbing Miami Center
06:16PM 25.7069 -79.9606 102° East 285 328 9,900 1,565 Climbing Miami Center
06:17PM 25.6839 -79.8608 104° East 305 351 11,200 1,782 Climbing Miami Center
06:23PM 25.7237 -79.1239 60° Northeast 473 544 21,900 1,856 Climbing FlightAware ADS-B
06:24PM 25.7609 -79.0507 60° Northeast 479 551 22,800 1,714 Climbing FlightAware ADS-B
06:24PM 25.7965 -78.9810 60° Northeast 485 558 23,700 1,452 Climbing FlightAware ADS-B
06:25PM 25.8246 -78.9263 60° Northeast 489 563 24,300 1,300 Climbing FlightAware ADS-B
06:25PM 25.8598 -78.8579 60° Northeast 495 570 25,000 1,362 Climbing FlightAware ADS-B
06:27PM 25.9862 -78.6108 60° Northeast 505 581 27,500 1,347 Climbing FlightAware ADS-B
06:28PM 26.0295 -78.5258 60° Northeast 509 586 28,300 1,099 Climbing FlightAware ADS-B
06:28PM 26.0691 -78.4480 60° Northeast 515 593 28,800 1,015 Climbing FlightAware ADS-B
06:29PM 26.1027 -78.3819 60° Northeast 517 595 29,400 1,483 Climbing FlightAware ADS-B
06:30PM 26.1768 -78.2356 60° Northeast 509 586 31,000 1,274 Climbing FlightAware ADS-B
06:32PM 26.3139 -77.9640 60° Northeast 506 582 33,200 1,063 Climbing FlightAware ADS-B
06:32PM 26.3549 -77.8824 60° Northeast 507 583 33,800 980 Climbing FlightAware ADS-B
06:33PM 26.4258 -77.7410 60° Northeast 500 575 34,800 891 Climbing FlightAware ADS-B
06:34PM 26.4700 -77.6527 60° Northeast 500 575 35,300 612 Climbing FlightAware ADS-B
06:35PM 26.5275 -77.5376 61° Northeast 502 578 35,800 552 Climbing FlightAware ADS-B
06:36PM 26.5664 -77.4592 61° Northeast 502 578 36,100 700 Climbing FlightAware ADS-B
06:36PM 26.5973 -77.3968 61° Northeast 501 577 36,500 500 Climbing FlightAware ADS-B
06:37PM 26.6376 -77.3159 61° Northeast 506 582 36,600 197 Climbing FlightAware ADS-B
06:37PM 26.6722 -77.2459 61° Northeast 509 586 36,700 295 Climbing FlightAware ADS-B
06:38PM 26.7067 -77.1761 61° Northeast 509 586 36,900 295 Climbing FlightAware ADS-B
06:38PM 26.7417 -77.1051 61° Northeast 512 589 37,000 49 Climbing FlightAware ADS-B
06:40PM 26.8401 -76.9054 61° Northeast 512 589 37,000  Level FlightAware ADS-B
06:43PM 27.0990 -76.3748 61° Northeast 520 598 37,000  Level FlightAware ADS-B
06:44PM 27.1092 -76.3614 61° Northeast 510 587 37,000  Level Miami Center
06:45PM 27.1839 -76.2047 62° Northeast 505 581 37,000  Level Miami Center
06:46PM 27.2500 -76.0500 64° Northeast 518 596 37,000  Level Miami Center
06:47PM 27.3200 -75.9139 60° Northeast 518 596 37,000  Level Miami Center
06:48PM 27.3964 -75.7869 56° Northeast 510 587 37,000  Level Miami Center
06:49PM 27.4622 -75.6367 64° Northeast 510 587 37,000  Level Miami Center
06:50PM 27.5256 -75.4858 65° Northeast 517 595 37,000 300 Level Miami Center
06:51PM 27.5950 -75.3397 62° Northeast 517 595 37,600 500 Climbing Miami Center
06:52PM 27.6708 -75.2028 58° Northeast 517 595 38,000 200 Climbing Miami Center
06:53PM 27.7314 -75.0447 67° East 525 604 38,000  Level Miami Center
06:54PM 27.7983 -74.8981 63° Northeast 530 610 38,000  Level Miami Center
06:54PM 27.8333 -74.8333 57° Northeast 520 598 38,000  Level New York Oceanic (ODAPS)
06:55PM 27.8667 -74.7833 57° Northeast 513 590 38,000  Level New York Oceanic (ODAPS)
06:56PM 27.9500 -74.6167 57° Northeast 504 580 38,000  Level New York Oceanic (ODAPS)
07:00PM 28.2500 -74.1167 57° Northeast 520 598 38,000  Level New York Oceanic (ODAPS)
07:06PM 28.7000 -73.3333 57° Northeast 508 585 38,000  Level New York Oceanic (ODAPS)
07:15PM 29.4333 -72.0167 58° Northeast 515 593 38,000  Level New York Oceanic (ODAPS)
07:25PM 30.1667 -70.7000 59° Northeast 508 585 38,000  Level New York Oceanic (ODAPS)
07:28PM 30.4000 -70.2667 60° Northeast 516 594 38,000  Level New York Oceanic (ODAPS)
07:34PM 30.8500 -69.3333 59° Northeast 498 573 38,000  Level New York Oceanic (ODAPS)
07:35PM 30.9000 -69.2333 59° Northeast 521 600 38,000  Level New York Oceanic (ODAPS)
07:41PM 31.3025 -68.3869 72° East 475 547 38,000  Level New York Center
07:42PM 31.4110 -68.2133 60° Northeast 521 600 38,000  Level FlightAware Transoceanic
07:42PM 31.3728 -68.2542 58° Northeast 506 582 38,000  Level New York Center
07:42PM 31.4000 -68.2333 60° Northeast 549 632 38,000  Level New York Oceanic (ODAPS)
07:43PM 31.4833 -68.0667 72° East 498 573 38,000  Level FlightAware Transoceanic
07:43PM 31.4442 -68.0917 60° Northeast 525 604 38,000  Level New York Center
07:44PM 31.5296 -67.8990 72° East 498 573 38,000  Level FlightAware Transoceanic
07:44PM 31.5033 -67.9464 64° Northeast 537 618 38,000  Level New York Center
07:45PM 31.5757 -67.7313 72° East 498 573 38,000  Level FlightAware Transoceanic
07:45PM 31.5572 -67.7647 71° East 537 618 38,000  Level New York Center
07:46PM 31.5967 -67.5931 75° East 537 618 38,000  Level New York Center
07:47PM 31.6403 -67.4431 71° East 542 624 38,000  Level New York Center
07:48PM 31.6850 -67.2586 74° East 542 624 38,000  Level New York Center
07:49PM 31.7300 -67.0886 73° East 542 624 38,000  Level New York Center
07:50PM 31.7753 -66.9381 70° East 548 631 38,000  Level New York Center
07:51PM 31.8211 -66.7508 74° East 540 621 38,000  Level New York Center
07:52PM 31.8597 -66.5975 73° East 545 627 38,000  Level New York Center
07:53PM 31.9114 -66.4094 72° East 545 627 38,000  Level New York Center
07:54PM 31.9572 -66.2411 72° East 545 627 38,000  Level New York Center
07:55PM 31.9972 -66.0900 73° East 539 620 38,000  Level New York Center
07:56PM 32.0417 -65.9042 74° East 539 620 38,000  Level New York Center
07:57PM 32.0847 -65.7328 73° East 545 627 38,000  Level New York Center
07:58PM 32.1261 -65.5836 72° East 540 621 38,000  Level New York Center
07:59PM 32.1703 -65.4019 74° East 535 616 38,000  Level New York Center
08:00PM 32.2069 -65.2503 74° East 530 610 38,000  Level New York Center
08:01PM 32.2547 -65.0683 73° East 523 602 38,000  Level New York Center
08:02PM 32.2947 -64.9061 74° East 523 602 38,000  Level New York Center
08:03PM 32.3289 -64.7567 75° East 528 608 38,000  Level New York Center
08:04PM 32.3714 -64.5719 75° East 528 608 38,000  Level New York Center
08:05PM 32.4478 -64.4361 56° Northeast 488 562 38,000  Level New York Center
08:06PM 32.5136 -64.2664 65° Northeast 507 583 38,000  Level New York Center
08:07PM 32.5758 -64.1117 64° Northeast 513 590 38,000  Level New York Center
08:08PM 32.6283 -63.9744 66° East 523 602 38,000  Level New York Center
08:09PM 32.6956 -63.8039 65° Northeast 523 602 38,000  Level New York Center
08:10PM 32.7517 -63.6589 65° Northeast 523 602 38,000  Level New York Center
08:11PM 32.8186 -63.4903 65° Northeast 517 595 38,000  Level New York Center
08:12PM 32.8778 -63.3344 66° East 517 595 38,000  Level New York Center
08:13PM 32.9336 -63.1961 64° Northeast 517 595 38,000  Level New York Center
08:14PM 32.9975 -63.0272 66° East 517 595 38,000  Level New York Center
08:15PM 33.0539 -62.8686 67° East 517 595 38,000  Level New York Center
08:16PM 33.1092 -62.7294 65° Northeast 517 595 38,000  Level New York Center
08:17PM 33.1767 -62.5619 64° Northeast 522 601 38,000  Level New York Center
08:18PM 33.2272 -62.4181 67° East 517 595 38,000  Level New York Center
08:19PM 33.2942 -62.2475 65° Northeast 517 595 38,000  Level New York Center
08:20PM 33.3492 -62.0856 68° East 517 595 38,000  Level New York Center
08:21PM 33.3950 -61.9439 69° East 517 595 38,000  Level New York Center
08:22PM 33.4614 -61.7728 65° Northeast 512 589 38,000  Level New York Center
08:23PM 33.5242 -61.6142 65° Northeast 517 595 38,000  Level New York Center
08:24PM 33.5694 -61.4719 69° East 517 595 38,000  Level New York Center
08:33PM 34.0000 -60.0000 67° East 521 600 38,000  Level New York Oceanic (ODAPS)
08:34PM 34.0000 -60.0333 67° East 372 428 38,000  Level New York Oceanic (ODAPS)
08:42PM 34.5167 -58.5000 68° East 516 594 38,000  Level New York Oceanic (ODAPS)
08:52PM 35.0333 -56.9333 69° East 526 605 38,000  Level New York Oceanic (ODAPS)
09:01PM 35.5333 -55.3167 70° East 537 618 38,000  Level New York Oceanic (ODAPS)
09:11PM 36.0167 -53.6833 71° East 535 616 38,000  Level New York Oceanic (ODAPS)
09:21PM 36.5000 -51.9667 72° East 539 620 38,000  Level New York Oceanic (ODAPS)
09:30PM 36.9500 -50.2000 73° East 513 590 38,000  Level New York Oceanic (ODAPS)
09:31PM 36.9559 -50.1798 73° East 539 620 38,000  Level FlightAware Transoceanic
09:31PM 36.9667 -50.1333 73° East 517 595 38,000  Level New York Oceanic (ODAPS)
09:31PM 37.0000 -50.0000 66° East 523 602 38,000  Level New York Oceanic (ODAPS)
09:40PM 37.5333 -48.4667 67° East 533 613 38,000  Level New York Oceanic (ODAPS)
09:49PM 38.1167 -46.7000 68° East 541 623 38,000  Level New York Oceanic (ODAPS)
09:59PM 38.6667 -44.9167 69° East 550 633 38,000  Level New York Oceanic (ODAPS)
10:09PM 39.1833 -43.1167 70° East 560 644 38,000  Level New York Oceanic (ODAPS)
10:18PM 39.6667 -41.3000 71° East 555 639 38,000  Level New York Oceanic (ODAPS)
10:19PM 39.7035 -41.1773 71° East 560 644 38,000  Level FlightAware Transoceanic
10:20PM 39.7538 -40.9818 72° East 560 644 38,000  Level FlightAware Transoceanic
10:21PM 39.8037 -40.7860 72° East 560 644 38,000  Level FlightAware Transoceanic
10:22PM 39.8532 -40.5899 72° East 560 644 38,000  Level FlightAware Transoceanic
10:23PM 39.9025 -40.3936 72° East 560 644 38,000  Level FlightAware Transoceanic
10:24PM 39.9533 -40.1865 72° East 555 639 38,000  Level FlightAware Transoceanic
10:25PM 40.0000 -40.0000 79° East 555 639 38,000  Level FlightAware Transoceanic
10:26PM 40.0263 -39.8179 79° East 555 639 38,000  Level FlightAware Transoceanic
10:27PM 40.0523 -39.6356 80° East 555 639 38,000  Level FlightAware Transoceanic
10:28PM 40.0780 -39.4532 80° East 555 639 38,000  Level FlightAware Transoceanic
10:29PM 40.1034 -39.2706 80° East 555 639 38,000  Level FlightAware Transoceanic
10:30PM 40.1285 -39.0880 80° East 555 639 38,000  Level FlightAware Transoceanic
10:31PM 40.1534 -38.9051 80° East 555 639 38,000  Level FlightAware Transoceanic
10:32PM 40.1779 -38.7222 80° East 555 639 38,000  Level FlightAware Transoceanic
10:33PM 40.2022 -38.5391 80° East 555 639 38,000  Level FlightAware Transoceanic
10:34PM 40.2262 -38.3559 80° East 555 639 38,000  Level FlightAware Transoceanic
10:35PM 40.2498 -38.1726 80° East 555 639 38,000  Level FlightAware Transoceanic
10:36PM 40.2732 -37.9891 81° East 555 639 38,000  Level FlightAware Transoceanic
10:37PM 40.2963 -37.8055 81° East 555 639 38,000  Level FlightAware Transoceanic
10:38PM 40.3192 -37.6218 81° East 555 639 38,000  Level FlightAware Transoceanic
10:39PM 40.3417 -37.4379 81° East 555 639 38,000  Level FlightAware Transoceanic
10:40PM 40.3639 -37.2539 81° East 555 639 38,000  Level FlightAware Transoceanic
10:41PM 40.3859 -37.0699 81° East 555 639 38,000  Level FlightAware Transoceanic
10:42PM 40.4075 -36.8857 81° East 555 639 38,000  Level FlightAware Transoceanic
10:43PM 40.4289 -36.7013 81° East 555 639 38,000  Level FlightAware Transoceanic
10:44PM 40.4500 -36.5169 82° East 555 639 38,000  Level FlightAware Transoceanic
10:45PM 40.4707 -36.3323 82° East 555 639 38,000  Level FlightAware Transoceanic
10:46PM 40.4912 -36.1477 82° East 555 639 38,000  Level FlightAware Transoceanic
10:47PM 40.5114 -35.9629 82° East 555 639 38,000  Level FlightAware Transoceanic
10:48PM 40.5313 -35.7780 82° East 555 639 38,000  Level FlightAware Transoceanic
10:49PM 40.5509 -35.5930 82° East 555 639 38,000  Level FlightAware Transoceanic
10:50PM 40.5702 -35.4079 82° East 555 639 38,000  Level FlightAware Transoceanic
10:51PM 40.5892 -35.2227 82° East 555 639 38,000  Level FlightAware Transoceanic
10:52PM 40.6079 -35.0374 82° East 555 639 38,000  Level FlightAware Transoceanic
10:53PM 40.6263 -34.8519 83° East 555 639 38,000  Level FlightAware Transoceanic
10:54PM 40.6444 -34.6664 83° East 555 639 38,000  Level FlightAware Transoceanic
10:55PM 40.6623 -34.4808 83° East 555 639 38,000  Level FlightAware Transoceanic
10:56PM 40.6798 -34.2951 83° East 555 639 38,000  Level FlightAware Transoceanic
10:57PM 40.6970 -34.1093 83° East 555 639 38,000  Level FlightAware Transoceanic
10:58PM 40.7139 -33.9234 83° East 555 639 38,000  Level FlightAware Transoceanic
10:59PM 40.7306 -33.7373 83° East 555 639 38,000  Level FlightAware Transoceanic
11:00PM 40.7469 -33.5512 83° East 555 639 38,000  Level FlightAware Transoceanic
11:01PM 40.7629 -33.3651 84° East 555 639 38,000  Level FlightAware Transoceanic
11:02PM 40.7786 -33.1788 84° East 555 639 38,000  Level FlightAware Transoceanic
11:03PM 40.7941 -32.9924 84° East 555 639 38,000  Level FlightAware Transoceanic
11:04PM 40.8092 -32.8060 84° East 555 639 38,000  Level FlightAware Transoceanic
11:05PM 40.8240 -32.6194 84° East 555 639 38,000  Level FlightAware Transoceanic
11:06PM 40.8386 -32.4328 84° East 555 639 38,000  Level FlightAware Transoceanic
11:07PM 40.8528 -32.2461 84° East 555 639 38,000  Level FlightAware Transoceanic
11:08PM 40.8667 -32.0593 84° East 555 639 38,000  Level FlightAware Transoceanic
11:09PM 40.8804 -31.8725 85° East 555 639 38,000  Level FlightAware Transoceanic
11:10PM 40.8937 -31.6855 85° East 555 639 38,000  Level FlightAware Transoceanic
11:11PM 40.9067 -31.4985 85° East 555 639 38,000  Level FlightAware Transoceanic
11:12PM 40.9194 -31.3115 85° East 555 639 38,000  Level FlightAware Transoceanic
11:13PM 40.9319 -31.1243 85° East 555 639 38,000  Level FlightAware Transoceanic
11:14PM 40.9440 -30.9371 85° East 555 639 38,000  Level FlightAware Transoceanic
11:15PM 40.9558 -30.7498 85° East 555 639 38,000  Level FlightAware Transoceanic
11:16PM 40.9673 -30.5624 85° East 555 639 38,000  Level FlightAware Transoceanic
11:17PM 40.9785 -30.3750 86° East 555 639 38,000  Level FlightAware Transoceanic
11:18PM 40.9894 -30.1875 86° East 555 639 38,000  Level FlightAware Transoceanic
11:19PM 40.9997 -30.0049 86° East  Level FlightAware Approximate
11:20PM 41.0098 -29.8221 86° East  Level FlightAware Approximate
11:21PM 40.9902 -29.8271 94° East  Level FlightAware Approximate
11:22PM 40.9796 -29.6445 94° East  Level FlightAware Approximate
11:23PM 40.9688 -29.4619 94° East  Level FlightAware Approximate
11:24PM 40.9576 -29.2794 95° East  Level FlightAware Approximate
11:25PM 40.9461 -29.0970 95° East  Level FlightAware Approximate
11:26PM 40.9344 -28.9146 95° East  Level FlightAware Approximate
11:27PM 40.9224 -28.7323 95° East  Level FlightAware Approximate
11:28PM 40.9100 -28.5501 95° East  Level FlightAware Approximate
11:29PM 40.8974 -28.3679 95° East  Level FlightAware Approximate
11:30PM 40.8845 -28.1858 95° East  Level FlightAware Approximate
11:31PM 40.8714 -28.0038 95° East  Level FlightAware Approximate
11:32PM 40.8579 -27.8218 96° East  Level FlightAware Approximate
11:33PM 40.8442 -27.6400 96° East  Level FlightAware Approximate
11:34PM 40.8301 -27.4582 96° East  Level FlightAware Approximate
11:35PM 40.8158 -27.2764 96° East  Level FlightAware Approximate
11:36PM 40.8012 -27.0948 96° East  Level FlightAware Approximate
11:37PM 40.7863 -26.9132 96° East  Level FlightAware Approximate
11:38PM 40.7711 -26.7317 96° East  Level FlightAware Approximate
11:39PM 40.7557 -26.5504 96° East  Level FlightAware Approximate
11:40PM 40.7399 -26.3690 96° East  Level FlightAware Approximate
11:41PM 40.7239 -26.1878 97° East  Level FlightAware Approximate
11:42PM 40.7076 -26.0067 97° East  Level FlightAware Approximate
11:43PM 40.6910 -25.8256 97° East  Level FlightAware Approximate
11:44PM 40.6741 -25.6447 97° East  Level FlightAware Approximate
11:45PM 40.6570 -25.4638 97° East  Level FlightAware Approximate
11:46PM 40.6395 -25.2830 97° East  Level FlightAware Approximate
11:47PM 40.6218 -25.1024 97° East  Level FlightAware Approximate
11:48PM 40.6038 -24.9218 97° East  Level FlightAware Approximate
11:49PM 40.5855 -24.7413 98° East  Level FlightAware Approximate
11:50PM 40.5670 -24.5609 98° East  Level FlightAware Approximate
11:51PM 40.5481 -24.3806 98° East  Level FlightAware Approximate
11:52PM 40.5290 -24.2005 98° East  Level FlightAware Approximate
11:53PM 40.5096 -24.0204 98° East  Level FlightAware Approximate
11:54PM 40.4899 -23.8404 98° East  Level FlightAware Approximate
11:55PM 40.4699 -23.6605 98° East  Level FlightAware Approximate
11:56PM 40.4497 -23.4808 98° East  Level FlightAware Approximate
11:57PM 40.4292 -23.3011 98° East  Level FlightAware Approximate
11:58PM 40.4084 -23.1216 99° East  Level FlightAware Approximate
11:59PM 40.3873 -22.9422 99° East  Level FlightAware Approximate
12:00AM 40.3660 -22.7629 99° East  Level FlightAware Approximate
12:01AM 40.3443 -22.5837 99° East  Level FlightAware Approximate
12:02AM 40.3224 -22.4046 99° East  Level FlightAware Approximate
12:03AM 40.3002 -22.2256 99° East  Level FlightAware Approximate
12:04AM 40.2778 -22.0468 99° East  Level FlightAware Approximate
12:05AM 40.2550 -21.8680 99° East  Level FlightAware Approximate
12:06AM 40.2320 -21.6894 100° East  Level FlightAware Approximate
12:07AM 40.2088 -21.5110 100° East  Level FlightAware Approximate
12:08AM 40.1852 -21.3326 100° East  Level FlightAware Approximate
12:09AM 40.1614 -21.1544 100° East  Level FlightAware Approximate
12:10AM 40.1373 -20.9762 100° East  Level FlightAware Approximate
12:11AM 40.1129 -20.7983 100° East  Level FlightAware Approximate
12:12AM 40.0882 -20.6204 100° East  Level FlightAware Approximate
12:13AM 40.0633 -20.4427 100° East  Level FlightAware Approximate
12:14AM 40.0381 -20.2651 100° East  Level FlightAware Approximate
12:15AM 40.0127 -20.0876 101° East  Level FlightAware Approximate
12:16AM 39.9843 -19.9110 103° East  Level FlightAware Approximate
12:17AM 39.9531 -19.7353 103° East  Level FlightAware Approximate
12:18AM 39.9216 -19.5597 103° East  Level FlightAware Approximate
12:19AM 39.8899 -19.3843 103° East  Level FlightAware Approximate
12:20AM 39.8579 -19.2090 103° East  Level FlightAware Approximate
12:21AM 39.8256 -19.0339 103° East  Level FlightAware Approximate
12:22AM 39.7931 -18.8590 104° East  Level FlightAware Approximate
12:23AM 39.7603 -18.6842 104° East  Level FlightAware Approximate
12:24AM 39.7273 -18.5096 104° East  Level FlightAware Approximate
12:25AM 39.6940 -18.3352 104° East  Level FlightAware Approximate
12:26AM 39.6604 -18.1609 104° East  Level FlightAware Approximate
12:27AM 39.6265 -17.9868 104° East  Level FlightAware Approximate
12:28AM 39.5924 -17.8129 104° East  Level FlightAware Approximate
12:29AM 39.5581 -17.6392 104° East  Level FlightAware Approximate
12:30AM 39.5235 -17.4656 104° East  Level FlightAware Approximate
12:31AM 39.4886 -17.2922 105° East  Level FlightAware Approximate
12:32AM 39.4535 -17.1189 105° East  Level FlightAware Approximate
12:33AM 39.4181 -16.9459 105° East  Level FlightAware Approximate
12:34AM 39.3825 -16.7730 105° East  Level FlightAware Approximate
12:35AM 39.3466 -16.6003 105° East  Level FlightAware Approximate
12:36AM 39.3104 -16.4278 105° East  Level FlightAware Approximate
12:37AM 39.2740 -16.2554 105° East  Level FlightAware Approximate
12:38AM 39.2374 -16.0833 105° East  Level FlightAware Approximate
12:39AM 39.2005 -15.9113 105° East  Level FlightAware Approximate
12:40AM 39.1633 -15.7395 106° East  Level FlightAware Approximate
12:41AM 39.1259 -15.5679 106° East  Level FlightAware Approximate
12:42AM 39.0882 -15.3964 106° East  Level FlightAware Approximate
12:43AM 39.0503 -15.2252 106° East  Level FlightAware Approximate
12:44AM 39.0121 -15.0541 106° East  Level FlightAware Approximate
12:45AM 38.9976 -14.8785 91° East  Level FlightAware Approximate
12:46AM 38.9938 -14.7006 92° East  Level FlightAware Approximate
12:47AM 38.9898 -14.5228 92° East  Level FlightAware Approximate
12:48AM 38.9855 -14.3450 92° East  Level FlightAware Approximate
12:49AM 38.9809 -14.1673 92° East  Level FlightAware Approximate
12:50AM 38.9761 -13.9895 92° East  Level FlightAware Approximate
12:51AM 38.9710 -13.8118 92° East  Level FlightAware Approximate
12:52AM 38.9656 -13.6341 92° East  Level FlightAware Approximate
12:53AM 38.9600 -13.4564 92° East  Level FlightAware Approximate
12:54AM 38.9541 -13.2788 92° East  Level FlightAware Approximate
12:55AM 38.9479 -13.1012 93° East  Level FlightAware Approximate
12:56AM 38.9415 -12.9236 93° East  Level FlightAware Approximate
12:57AM 38.9347 -12.7461 93° East  Level FlightAware Approximate
12:58AM 38.9277 -12.5686 93° East  Level FlightAware Approximate
12:59AM 38.9205 -12.3911 93° East  Level FlightAware Approximate
01:00AM 38.9167 -12.2135 90° East  Level FlightAware Approximate
01:01AM 38.9167 -12.0358 90° East  Level FlightAware Approximate
01:02AM 38.9110 -11.8584 95° East  Level FlightAware Approximate
01:03AM 38.9000 -11.6813 90° East  Level FlightAware Approximate
01:04AM 38.9000 -11.5037 90° East  Level FlightAware Approximate
01:05AM 38.8834 -11.3323 90° East  Level FlightAware Approximate
01:06AM 38.8824 -11.1548 96° East  Level FlightAware Approximate
01:07AM 38.8684 -10.9781 96° East  Level FlightAware Approximate
01:08AM 38.8542 -10.8015 96° East  Level FlightAware Approximate
01:09AM 38.8468 -10.6243 92° East  Level FlightAware Approximate
01:10AM 38.8420 -10.4469 92° East  Level FlightAware Approximate
01:11AM 38.8369 -10.2695 92° East  Level FlightAware Approximate
01:12AM 38.8289 -10.0924 96° East  Level FlightAware Approximate
01:13AM 38.8156 -9.9158 95° East  Level FlightAware Approximate
01:14AM 38.8046 -9.7389 95° East  Level FlightAware Approximate
01:15AM 38.7920 -9.5622 96° East  Level FlightAware Approximate
01:16AM 38.7833 -9.3854 90° East  Level FlightAware Approximate
01:17AM 38.7820 -9.2081 90° East  Level Estimated
01:18AM 38.7667 -9.1333 90° East  Level FlightAware Approximate
01:19AM 38.7813 -9.1359 90° East  Level Estimated
01:20AM 38.7813 -9.1359 90° East  Level Estimated
01:21AM 38.7813 -9.1359 90° East  Level Estimated
01:22AM 38.7813 -9.1359 90° East  Level Estimated
01:23AM 38.7813 -9.1359 90° East  Level Estimated
01:24AM 38.7813 -9.1359 90° East  Level Estimated
01:25AM 38.7813 -9.1359 90° East  Level Estimated
01:26AM 38.7813 -9.1359 90° East  Level Estimated
01:27AM 38.7813 -9.1359 90° East  Level Estimated
01:28AM 38.7813 -9.1359 90° East  Level Estimated
01:29AM 38.7813 -9.1359 90° East  Level Estimated
01:30AM 38.7813 -9.1359 90° East  Level Estimated
01:31AM 38.7813 -9.1359 90° East  Level Estimated
01:32AM 38.7813 -9.1359 90° East  Level Estimated
01:33AM 38.7813 -9.1359 90° East  Level Estimated
01:34AM 38.7813 -9.1359 90° East  Level Estimated
01:35AM 38.7813 -9.1359 90° East  Level Estimated
01:36AM 38.7813 -9.1359 90° East  Level Estimated
01:37AM 38.7813 -9.1359 90° East  Level Estimated
01:38AM 38.7813 -9.1359 90° East  Level Estimated
01:39AM 38.7813 -9.1359 90° East  Level Estimated
01:40AM 38.7813 -9.1359 90° East  Level Estimated
01:41AM 38.7813 -9.1359 90° East  Level Estimated
01:42AM 38.7813 -9.1359 90° East  Level Estimated
01:43AM 38.7813 -9.1359 90° East  Level Estimated
01:44AM 38.7813 -9.1359 90° East  Level Estimated
01:45AM 38.7813 -9.1359 90° East  Level Estimated